Regional Weather Roundup
Issued by NWS

Home | Current Version | Previous Version | Graphics & Text | Print | Product List | Glossary On
Versions: 1 2 3 4 5 6 7 8 9 10 11 12 13 14 15 16 17 18 19 20 21 22 23 24 25 26 27 28 29 30 31 32 33 34 35 36 37 38 39 40 41 42 43 44 45 46 47 48 49 50
282
ASUS43 KOAX 232110
RWRNE

WEATHER ROUNDUP FOR NEBRASKA
NATIONAL WEATHER SERVICE OMAHA NE
400 PM CDT FRI JUN 23 2017

NOTES: SATELLITE DATA IS BEING USED TO AUGMENT CLOUD COVER ABOVE
       12000 FEET.
       "FAIR" INDICATES FEW OR NO CLOUDS BELOW 12,000 FEET WITH NO
       SIGNIFICANT WEATHER AND/OR OBSTRUCTIONS TO VISIBILITY.

  * THESE STATIONS DO NOT REPORT WEATHER SUCH AS RAIN...SNOW OR FOG.

NEZ001>004-019>022-054>056-232200-
NEBRASKA PANHANDLE

CITY           SKY/WX    TMP DP  RH WIND       PRES   REMARKS
SCOTTSBLUFF    SUNNY     74  35  24 NW16G23   30.18F
ALLIANCE       SUNNY     72  30  21 N17G24    30.16F
CHADRON        SUNNY     72  26  18 NW20G29   30.14F
GORDON         FAIR      68  40  35 N12       30.16S
KIMBALL        SUNNY     68  41  38 W6        30.23F
SIDNEY         MOSUNNY   71  37  28 N12       30.21F
$$

NEZ057>060-069>072-079>082-232200-
SOUTHWEST NEBRASKA

CITY           SKY/WX    TMP DP  RH WIND       PRES   REMARKS
NORTH PLATTE   SUNNY     78  40  25 NW13G21   30.11F
IMPERIAL       CLOUDY    73  35  25 NW10      30.17S
LEXINGTON      MOSUNNY   74  44  33 N9G20     30.10F
MCCOOK         MOSUNNY   76  44  32 VRB3G17   30.11F
OGALLALA       SUNNY     77  31  18 NW12G21   30.15S
$$

NEZ005>010-023>029-035>040-094-232200-
NORTH CENTRAL NEBRASKA

CITY           SKY/WX    TMP DP  RH WIND       PRES   REMARKS
VALENTINE      PTSUNNY   73  35  25 N15G24    30.12F
AINSWORTH      PTSUNNY   67  41  38 N16G28    30.11F
BROKEN BOW     MOSUNNY   74  44  34 NW17G24   30.10F
O`NEILL        PTSUNNY   71  45  39 NW20G28   30.08S
ORD            CLOUDY    71  45  39 NW14      30.08R
THEDFORD       MOSUNNY   72  42  33 NW13G18   30.14S
$$

NEZ041-046>049-061>064-073>077-083>087-232200-
SOUTH CENTRAL NEBRASKA

CITY           SKY/WX    TMP DP  RH WIND       PRES   REMARKS
GRAND ISLAND   MOSUNNY   75  45  34 NW18G25   30.06S
AURORA         MOSUNNY   75  44  33 N21G26    30.05S
HASTINGS       SUNNY     76  45  33 NW17G26   30.08F
HEBRON         MOSUNNY   78  49  36 N10G18    30.05S
HOLDREGE       MOSUNNY   74  45  34 N13       30.09F
KEARNEY *      SUNNY     77  43  29 N15G23    30.08S
YORK           MOSUNNY   73  46  38 N13G18    30.04
$$

NEZ011>018-030>034-042>045-232200-
NORTHEAST NEBRASKA

CITY           SKY/WX    TMP DP  RH WIND       PRES   REMARKS
NORFOLK        MOSUNNY   70  48  45 NW17G23   30.02S
ALBION         PTSUNNY   72  45  38 NW14G25   30.06R
BLAIR          MOSUNNY   74  50  43 NW17G23   29.99S
FREMONT        MOSUNNY   74  49  42 NW17G25   30.01S
TEKAMAH        MOSUNNY   76  48  37 NW23G31   29.98F
WAYNE          CLOUDY    72  48  42 NW16G25   30.02S
$$

NEZ050>053-065>068-078-088>093-232200-
SOUTHEAST NEBRASKA

CITY           SKY/WX    TMP DP  RH WIND       PRES   REMARKS
LINCOLN        MOSUNNY   75  51  43 N14G22    30.02S
OMAHA EPPLEY   PTSUNNY   76  52  43 N16G26    29.97F
BEATRICE       SUNNY     76  52  42 NW16G26   30.02S
FALLS CITY     SUNNY     73  55  53 N12G23    29.99R
NEBRASKA CITY  MOSUNNY   73  56  55 NW18      30.00S
PLATTSMOUTH    MOSUNNY   72  52  49 NW16G22   30.00S
$$

NEZ044-045-051>053-067-232200-
OMAHA AREA

CITY           SKY/WX    TMP DP  RH WIND       PRES   REMARKS
OMAHA EPPLEY   PTSUNNY   76  52  43 N16G26    29.97F
BLAIR          MOSUNNY   74  50  43 NW17G23   29.99S
FREMONT        MOSUNNY   74  49  42 NW17G25   30.01S
MILLARD        PTSUNNY   75  54  47 N12G18    29.99F
OFFUTT AFB     PTSUNNY   72  50  46 N10G18    29.99F
PLATTSMOUTH    MOSUNNY   72  52  49 NW16G22   30.00S
WAHOO          MOCLDY    74  47  38 N15G23    30.00F
$$




USA.gov is the U.S. government's official web portal to all federal, state and local government web resources and services.